DateTimeUTC,F1_A11,F1_S11,BsB_S11,BsG_S11,BsR_S11,BbsB_S11,BbsG_S11,BbsR_S11,BaB_A11,BaG_A11,BaR_A11,Tu_S11,T_S11,Uu_S11,U_S11,P_S11,T1_A11
2021-11-18T12:00:00Z,00000200,21000000,,,,,,,0000.55,0000.24,0000.02,17.6,24.9,,00.0,0637.0,30.7
2021-11-18T12:01:00Z,00000200,21000000,,,,,,,0000.13,0000.26,0000.44,17.6,24.9,,00.0,0637.0,30.7
2021-11-18T12:02:00Z,00000200,21000000,,,,,,,-000.15,-000.14,-000.01,17.6,25.0,,00.0,0637.0,30.8
2021-11-18T12:03:00Z,00000200,61000000,,,,,,,-000.01,-000.10,0000.21,17.6,25.0,,00.0,0637.0,30.8
2021-11-18T12:04:00Z,00000200,41000000,0000.14,-000.38,0000.26,-000.48,-000.03,0000.10,0000.12,0000.19,-000.21,17.9,24.9,,00.0,0637.8,30.8
2021-11-18T12:05:00Z,00000200,01000000,0000.63,0000.07,-000.02,0000.01,-000.16,0000.08,0000.15,0000.10,0000.07,18.0,24.8,,00.0,0637.9,30.8
2021-11-18T12:06:00Z,00000200,01000000,0000.54,0000.02,0000.30,0000.31,0000.02,0000.32,0000.03,-000.16,0000.22,18.0,24.8,,00.0,0637.9,30.8
2021-11-18T12:07:00Z,00000200,01000000,0000.52,-000.17,0000.34,0000.02,-000.10,0000.08,-000.00,0000.51,-000.11,18.1,24.8,,00.0,0637.9,30.8
2021-11-18T12:08:00Z,00000200,01000000,-000.30,-000.05,0000.15,-000.08,0000.13,-000.04,-000.12,-000.14,0000.14,18.1,24.9,,00.0,0637.9,30.8
2021-11-18T12:09:00Z,00000200,01000000,0000.37,-000.13,0000.05,-000.26,0000.03,0000.22,0000.35,0000.07,-000.02,18.2,24.9,,00.0,0637.9,30.8
2021-11-18T12:10:00Z,00000200,01000000,0000.11,-000.50,0000.18,-000.13,0000.00,0000.32,-000.02,-000.21,-000.12,18.3,24.9,,00.0,0638.0,30.8
2021-11-18T12:11:00Z,00000200,01000000,0000.47,-000.07,0000.28,-000.35,0000.23,0000.32,0000.05,0000.18,0000.28,18.3,24.9,,00.0,0638.0,30.9
2021-11-18T12:12:00Z,00000200,01000000,0000.51,-000.00,0000.23,-000.51,-000.31,-000.09,-000.08,-000.00,-000.05,18.4,24.9,,00.0,0638.0,30.9
2021-11-18T12:13:00Z,00000200,01000000,0003.23,0002.88,0003.49,0000.66,0000.68,0001.26,0011.76,0011.56,0011.50,18.4,25.0,,00.0,0637.5,30.9
2021-11-18T12:14:00Z,00000200,01000000,0000.92,-000.23,0000.21,-000.20,0000.23,-000.12,0001.23,0001.19,0001.20,18.5,25.0,,00.0,0637.0,30.9
2021-11-18T12:15:00Z,00000200,01000000,0000.47,-000.20,0000.33,0000.48,-000.21,0000.36,0000.12,0000.10,0000.17,18.5,25.0,,00.0,0637.0,30.9
2021-11-18T12:16:00Z,00000200,01000000,0000.01,0000.09,0000.18,0000.11,-000.11,-000.10,0000.06,0000.42,0000.24,18.5,25.1,,00.0,0637.0,30.9
2021-11-18T12:17:00Z,00000200,01000000,0000.55,-000.30,0000.15,0000.43,-000.11,0000.17,-000.21,-000.42,-000.24,18.6,25.1,,00.0,0637.0,30.9
2021-11-18T12:18:00Z,00000200,01000000,0000.06,0000.30,0000.10,-000.09,0000.10,-000.17,0000.17,0000.14,0000.25,18.6,25.1,,00.0,0637.0,30.9
2021-11-18T12:19:00Z,00000200,01000000,0000.71,-000.04,0000.07,0000.04,-000.24,-000.20,0000.07,0000.09,0000.03,18.6,25.1,,00.0,0637.0,30.9
2021-11-18T12:20:00Z,00000200,01000000,0000.66,0000.09,0000.40,0000.06,-000.19,0000.17,-000.32,-000.08,-000.61,18.6,25.1,,00.0,0637.0,30.9
2021-11-18T12:21:00Z,00000200,01000000,-000.41,-000.10,0000.00,-000.51,-000.18,0000.15,0000.27,0000.06,0000.64,18.7,25.2,,00.0,0637.0,30.9
2021-11-18T12:22:00Z,00000200,01000000,0000.93,-000.27,0000.01,0000.26,-000.08,0000.17,-000.06,0000.03,-000.16,18.7,25.2,,00.0,0637.0,30.9
2021-11-18T12:23:00Z,00000200,01000000,-000.06,0000.17,0000.38,0000.05,0000.01,0000.20,0000.20,0000.23,0000.29,18.7,25.2,,00.0,0637.0,30.9
2021-11-18T12:24:00Z,00000200,01000000,0000.47,-000.19,0000.10,0000.40,-000.11,0000.38,-000.25,-000.17,0000.40,18.7,25.2,,00.0,0636.9,30.9
2021-11-18T12:25:00Z,00000200,01000000,-000.07,-000.34,0000.39,-000.06,0000.11,0000.08,0000.41,0000.05,-000.30,18.8,25.2,,00.0,0637.0,30.9
2021-11-18T12:26:00Z,00000200,01000000,0000.25,-000.13,0000.45,-000.60,-000.18,0000.26,-000.04,0000.06,-000.11,18.8,25.3,,00.0,0637.0,30.9
2021-11-18T12:27:00Z,00000200,01000000,0000.72,0000.12,0000.12,-000.47,0000.22,0000.00,0000.06,-000.05,0000.14,18.8,25.3,,00.0,0637.0,30.9
2021-11-18T12:28:00Z,00000200,01000000,0000.68,-000.32,0000.20,-000.18,-000.15,-000.06,0000.32,0000.11,-000.06,18.8,25.3,,00.0,0637.0,30.9
2021-11-18T12:29:00Z,00000200,01000000,0000.68,-000.19,0000.09,-000.48,0000.05,0000.18,-000.30,-000.10,-000.16,18.8,25.3,,00.0,0637.1,30.9
2021-11-18T12:30:00Z,00000200,01000000,0000.12,-000.03,0000.02,0000.15,-000.30,0000.29,0000.31,0000.25,0000.17,18.8,25.3,,00.0,0637.1,30.9
2021-11-18T12:31:00Z,00000200,01000000,0000.39,-000.42,-000.20,0000.39,0000.07,0000.07,-000.14,0000.48,0000.10,18.8,25.3,,00.0,0637.1,30.9
2021-11-18T12:32:00Z,00000200,01000000,-000.45,-000.35,0000.19,0000.28,0000.04,-000.16,0000.04,-000.35,0000.30,18.8,25.3,,00.0,0637.1,30.9
2021-11-18T12:33:00Z,00000200,01000000,0001.03,-000.23,0000.17,0000.35,-000.01,0000.32,0000.01,-000.01,0000.02,18.8,25.3,,00.0,0637.1,30.9
2021-11-18T12:34:00Z,00000200,01000000,0000.90,-000.16,0000.12,0000.08,-000.12,0000.50,-000.09,0000.10,-000.03,18.9,25.3,,00.0,0637.1,30.9
2021-11-18T12:35:00Z,00000200,01000000,-000.41,-000.08,0000.33,0000.18,-000.15,0000.30,0000.11,0000.03,0000.00,18.9,25.4,,00.0,0637.1,30.9
2021-11-18T12:36:00Z,00000200,01000000,-000.27,-000.33,0000.16,0000.59,-000.19,0000.11,-000.02,0000.24,0000.01,18.9,25.4,,00.0,0637.1,30.9
2021-11-18T12:37:00Z,00000200,01000000,0000.61,0000.24,0000.22,0000.31,-000.00,0000.06,0000.09,-000.29,0000.02,18.9,25.3,,00.0,0637.0,30.9
2021-11-18T12:38:00Z,00000200,01000000,0000.12,-000.28,0000.28,-000.88,-000.10,0000.28,0000.11,0000.07,-000.02,18.8,25.3,,00.0,0637.0,30.8
2021-11-18T12:39:00Z,00000200,01000000,-000.26,-000.08,0000.05,0000.32,0000.09,0000.13,-000.03,-000.24,-000.03,18.7,25.3,,00.0,0637.0,30.9
2021-11-18T12:40:00Z,00000200,01000000,0000.90,0000.11,0000.37,0000.15,-000.16,0000.09,-000.06,0000.50,-000.04,18.6,25.2,,00.0,0637.1,30.8
2021-11-18T12:41:00Z,00000200,01000000,0000.19,0000.08,0000.08,0000.38,-000.25,0000.40,0000.19,-000.16,0000.09,18.5,25.2,,00.0,0637.0,30.8
2021-11-18T12:42:00Z,00000200,01000000,0000.68,0000.06,0000.28,0000.08,-000.00,0000.35,-000.04,0000.07,-000.12,18.4,25.1,,00.0,0637.0,30.8
2021-11-18T12:43:00Z,00000200,01000000,0001.09,-000.03,0000.27,-000.13,-000.33,0000.10,-000.10,0000.20,0000.07,18.4,25.1,,00.0,0637.0,30.7
2021-11-18T12:44:00Z,00000200,01000000,0000.21,-000.17,-000.10,0000.13,-000.32,0000.26,0000.30,0000.00,0000.33,18.3,25.1,,00.0,0637.0,30.8
2021-11-18T12:45:00Z,00000200,01000000,0000.42,-000.06,0000.03,0000.30,-000.09,0000.20,-000.02,-000.04,-000.01,18.3,25.1,,00.0,0637.0,30.8
2021-11-18T12:46:00Z,00000200,01000000,0000.39,-000.04,0000.27,-000.15,0000.10,0000.27,0000.01,0000.25,0000.09,18.4,25.1,,00.0,0637.0,30.8
2021-11-18T12:47:00Z,00000200,01000000,-000.14,-000.33,0000.08,0000.10,-000.03,0000.25,0000.22,-000.09,-000.20,18.4,25.1,,00.0,0637.0,30.8
2021-11-18T12:48:00Z,00000200,01000000,0000.52,-000.37,0000.11,-000.00,-000.06,0000.36,0000.22,0000.01,0000.36,18.4,25.1,,00.0,0637.1,30.8
2021-11-18T12:49:00Z,00000200,01000000,0000.34,-000.15,0000.37,0000.17,-000.04,0000.09,-000.55,-000.35,-000.13,18.4,25.1,,00.0,0637.1,30.8
2021-11-18T12:50:00Z,00000200,01000000,-000.04,0000.03,0000.04,0000.43,-000.29,-000.30,0000.61,0000.62,0000.18,18.5,25.2,,00.0,0637.1,30.9
2021-11-18T12:51:00Z,00000200,01000000,0000.32,0000.13,0000.47,-000.73,-000.18,0000.16,0000.14,0000.15,0000.14,18.6,25.2,,00.0,0637.1,30.8
2021-11-18T12:52:00Z,00000200,01000000,-000.08,-000.19,0000.16,-000.24,-000.24,0000.18,-000.09,0000.01,-000.01,18.6,25.2,,00.0,0637.1,30.9
2021-11-18T12:53:00Z,00000200,01000000,-000.12,-000.18,0000.13,0000.23,-000.26,-000.01,0000.09,0000.20,-000.03,18.7,25.2,,00.0,0637.2,30.9
2021-11-18T12:54:00Z,00000200,01000000,0001.04,-000.10,-000.07,-000.81,0000.16,0000.04,-000.03,-000.34,0000.11,18.7,25.2,,00.0,0637.2,30.9
2021-11-18T12:55:00Z,00000200,01000000,0000.85,-000.09,0000.37,-000.15,-000.25,0000.07,-000.21,0000.14,-000.23,18.8,25.2,,00.0,0637.2,30.9
2021-11-18T12:56:00Z,00000200,01000000,0000.45,0000.30,0000.33,-000.35,0000.37,0000.33,0000.19,-000.45,0000.36,18.8,25.2,,00.0,0637.2,30.9
2021-11-18T12:57:00Z,00000200,41000000,,,,,,,-000.32,0000.33,-000.34,18.8,25.3,,00.0,0637.1,30.9
2021-11-18T12:58:00Z,00000200,61000000,,,,,,,0000.05,0000.08,0000.25,18.4,25.3,,00.0,0636.2,30.8
2021-11-18T12:59:00Z,00000200,21000000,,,,,,,0000.28,0000.03,-000.18,18.4,25.4,,00.0,0636.2,30.8
